| time (UTC) | temp F | wind direction | speed MPH | gust MPH | rain 1hr in | rain 24hr in | rain mn in | humidity % | barometer mb |
| 20260508142052 | 65 | 279 | 0.0 | 0.0 | 0.00 | 0.00 | 0.00 | 21 | 1019.0 |
| 20260508141551 | 65 | 279 | 0.0 | 0.0 | 0.00 | 0.00 | 0.00 | 20 | 1019.0 |
| 20260508141052 | 65 | 277 | 0.0 | 0.0 | 0.00 | 0.00 | 0.00 | 20 | 1019.0 |
| 20260508140552 | 64 | 277 | 0.0 | 0.0 | 0.00 | 0.00 | 0.00 | 22 | 1019.0 |
| 20260508135549 | 61 | 277 | 0.0 | 0.0 | 0.00 | 0.00 | 0.00 | 24 | 1018.8 |
| 20260508135046 | 61 | 278 | 0.0 | 0.0 | 0.00 | 0.00 | 0.00 | 25 | 1018.8 |
| 20260508134546 | 60 | 278 | 0.0 | 0.0 | 0.00 | 0.00 | 0.00 | 24 | 1018.6 |
| 20260508134048 | 60 | 278 | 0.0 | 0.0 | 0.00 | 0.00 | 0.00 | 26 | 1018.8 |
| 20260508133046 | 60 | 278 | 0.0 | 0.0 | 0.00 | 0.00 | 0.00 | 25 | 1018.5 |
| 20260508131544 | 58 | 278 | 0.0 | 0.0 | 0.00 | 0.00 | 0.00 | 23 | 1018.5 |
| 20260508131043 | 58 | 277 | 0.0 | 0.0 | 0.00 | 0.00 | 0.00 | 23 | 1018.4 |
| 20260508130543 | 58 | 278 | 0.0 | 0.0 | 0.00 | 0.00 | 0.00 | 24 | 1018.3 |
| 20260508130047 | 58 | 278 | 0.0 | 0.0 | 0.00 | 0.00 | 0.00 | 24 | 1018.3 |
| 20260508125543 | 58 | 278 | 0.0 | 0.0 | 0.00 | 0.00 | 0.00 | 23 | 1018.3 |
| 20260508125043 | 58 | 278 | 0.0 | 0.0 | 0.00 | 0.00 | 0.00 | 23 | 1018.3 |
| 20260508124544 | 58 | 278 | 0.0 | 0.0 | 0.00 | 0.00 | 0.00 | 23 | 1018.2 |
| 20260508124042 | 58 | 278 | 0.0 | 0.0 | 0.00 | 0.00 | 0.00 | 22 | 1018.1 |
| 20260508123542 | 58 | 278 | 0.0 | 0.0 | 0.00 | 0.00 | 0.00 | 23 | 1018.1 |
| 20260508123041 | 58 | 277 | 0.0 | 1.0 | 0.00 | 0.00 | 0.00 | 23 | 1018.0 |
| 20260508122042 | 58 | 278 | 0.0 | 2.0 | 0.00 | 0.00 | 0.00 | 23 | 1018.0 |
| 20260508121541 | 58 | 278 | 0.0 | 2.0 | 0.00 | 0.00 | 0.00 | 22 | 1018.0 |
| 20260508120542 | 59 | 268 | 0.0 | 0.0 | 0.00 | 0.00 | 0.00 | 22 | 1017.7 |
| 20260508120039 | 59 | 268 | 0.0 | 2.0 | 0.00 | 0.00 | 0.00 | 21 | 1017.7 |
| 20260508115540 | 60 | 268 | 0.0 | 2.0 | 0.00 | 0.00 | 0.00 | 21 | 1017.9 |
| 20260508115037 | 60 | 251 | 0.0 | 0.0 | 0.00 | 0.00 | 0.00 | 21 | 1017.9 |
| 20260508114035 | 60 | 251 | 1.0 | 3.0 | 0.00 | 0.00 | 0.00 | 21 | 1017.9 |
| 20260508113534 | 60 | 250 | 1.0 | 3.0 | 0.00 | 0.00 | 0.00 | 21 | 1017.7 |
| 20260508113033 | 60 | 265 | 1.0 | 3.0 | 0.00 | 0.00 | 0.00 | 21 | 1017.7 |
| 20260508112530 | 60 | 257 | 1.0 | 2.0 | 0.00 | 0.00 | 0.00 | 22 | 1017.7 |
| 20260508112030 | 60 | 266 | 1.0 | 3.0 | 0.00 | 0.00 | 0.00 | 22 | 1017.7 |
| 20260508111532 | 60 | 263 | 2.0 | 3.0 | 0.00 | 0.00 | 0.00 | 22 | 1017.6 |
| 20260508111028 | 59 | 258 | 2.0 | 4.0 | 0.00 | 0.00 | 0.00 | 22 | 1017.6 |
| 20260508110528 | 59 | 254 | 2.0 | 4.0 | 0.00 | 0.00 | 0.00 | 22 | 1017.6 |
| 20260508105528 | 59 | 254 | 2.0 | 3.0 | 0.00 | 0.00 | 0.00 | 22 | 1017.5 |
| 20260508105028 | 59 | 254 | 2.0 | 3.0 | 0.00 | 0.00 | 0.00 | 22 | 1017.5 |
| 20260508104528 | 59 | 257 | 2.0 | 3.0 | 0.00 | 0.00 | 0.00 | 22 | 1017.5 |
| 20260508103526 | 59 | 271 | 1.0 | 2.0 | 0.00 | 0.00 | 0.00 | 22 | 1017.5 |
| 20260508103026 | 59 | 262 | 1.0 | 3.0 | 0.00 | 0.00 | 0.00 | 21 | 1017.4 |
| 20260508102525 | 59 | 259 | 1.0 | 3.0 | 0.00 | 0.00 | 0.00 | 21 | 1017.4 |
| 20260508102024 | 60 | 263 | 1.0 | 3.0 | 0.00 | 0.00 | 0.00 | 21 | 1017.4 |
| 20260508100523 | 60 | 263 | 2.0 | 3.0 | 0.00 | 0.00 | 0.00 | 21 | 1017.3 |
| 20260508100024 | 60 | 255 | 2.0 | 3.0 | 0.00 | 0.00 | 0.00 | 21 | 1017.2 |
| 20260508091513 | 62 | 254 | 1.0 | 3.0 | 0.00 | 0.00 | 0.00 | 20 | 1017.2 |
| 20260508091012 | 62 | 265 | 1.0 | 3.0 | 0.00 | 0.00 | 0.00 | 20 | 1017.2 |
| 20260508090511 | 62 | 257 | 1.0 | 3.0 | 0.00 | 0.00 | 0.00 | 20 | 1017.3 |
| 20260508090008 | 62 | 248 | 1.0 | 3.0 | 0.00 | 0.00 | 0.00 | 20 | 1017.3 |
| 20260508085010 | 61 | 259 | 1.0 | 3.0 | 0.00 | 0.00 | 0.00 | 20 | 1017.5 |
| 20260508084502 | 61 | 253 | 1.0 | 2.0 | 0.00 | 0.00 | 0.00 | 20 | 1017.4 |
| 20260508083502 | 62 | 256 | 0.0 | 2.0 | 0.00 | 0.00 | 0.00 | 20 | 1017.4 |
| 20260508083001 | 63 | 229 | 0.0 | 1.0 | 0.00 | 0.00 | 0.00 | 19 | 1017.4 |
| 20260508082456 | 63 | 229 | 1.0 | 2.0 | 0.00 | 0.00 | 0.00 | 19 | 1017.4 |
| 20260508081955 | 63 | 220 | 1.0 | 3.0 | 0.00 | 0.00 | 0.00 | 19 | 1017.4 |
| 20260508081455 | 62 | 269 | 1.0 | 3.0 | 0.00 | 0.00 | 0.00 | 20 | 1017.5 |
| 20260508080956 | 62 | 254 | 2.0 | 3.0 | 0.00 | 0.00 | 0.00 | 20 | 1017.4 |
| 20260508080455 | 62 | 265 | 1.0 | 3.0 | 0.00 | 0.00 | 0.00 | 20 | 1017.5 |
| 20260508075954 | 62 | 254 | 1.0 | 3.0 | 0.00 | 0.00 | 0.00 | 20 | 1017.5 |
| 20260508075454 | 62 | 271 | 2.0 | 3.0 | 0.00 | 0.00 | 0.00 | 20 | 1017.4 |
| 20260508074954 | 62 | 262 | 2.0 | 3.0 | 0.00 | 0.00 | 0.00 | 20 | 1017.5 |
| 20260508074454 | 63 | 263 | 2.0 | 3.0 | 0.00 | 0.00 | 0.00 | 19 | 1017.5 |
| 20260508073954 | 64 | 271 | 2.0 | 3.0 | 0.00 | 0.00 | 0.00 | 19 | 1017.6 |
| 20260508073454 | 64 | 252 | 1.0 | 3.0 | 0.00 | 0.00 | 0.00 | 19 | 1017.5 |
| 20260508072953 | 64 | 259 | 1.0 | 3.0 | 0.00 | 0.00 | 0.00 | 19 | 1017.7 |
| 20260508072454 | 64 | 246 | 1.0 | 3.0 | 0.00 | 0.00 | 0.00 | 19 | 1017.6 |
| 20260508071448 | 64 | 258 | 1.0 | 3.0 | 0.00 | 0.00 | 0.00 | 19 | 1017.6 |
| 20260508070948 | 64 | 255 | 1.0 | 3.0 | 0.00 | 0.00 | 0.00 | 19 | 1017.6 |
| 20260508065946 | 65 | 250 | 1.0 | 3.0 | 0.00 | 0.00 | 0.00 | 19 | 1017.6 |
| 20260508065446 | 64 | 253 | 1.0 | 3.0 | 0.00 | 0.00 | 0.00 | 19 | 1017.6 |
| 20260508064944 | 64 | 247 | 2.0 | 3.0 | 0.00 | 0.00 | 0.00 | 19 | 1017.6 |
| 20260508064443 | 65 | 255 | 2.0 | 3.0 | 0.00 | 0.00 | 0.00 | 19 | 1017.5 |
| 20260508063942 | 65 | 286 | 2.0 | 3.0 | 0.00 | 0.00 | 0.00 | 19 | 1017.5 |
| 20260508063442 | 65 | 252 | 2.0 | 3.0 | 0.00 | 0.00 | 0.00 | 18 | 1017.5 |
| 20260508062942 | 65 | 258 | 2.0 | 3.0 | 0.00 | 0.00 | 0.00 | 18 | 1017.5 |
| 20260508062442 | 66 | 254 | 2.0 | 4.0 | 0.00 | 0.00 | 0.00 | 18 | 1017.5 |
| 20260508061943 | 66 | 274 | 2.0 | 4.0 | 0.00 | 0.00 | 0.00 | 18 | 1017.5 |
| 20260508060941 | 67 | 256 | 1.0 | 3.0 | 0.00 | 0.00 | 0.00 | 17 | 1017.5 |
| 20260508060438 | 67 | 267 | 1.0 | 3.0 | 0.00 | 0.00 | 0.00 | 17 | 1017.4 |
| 20260508055938 | 68 | 253 | 1.0 | 3.0 | 0.00 | 0.00 | 0.00 | 17 | 1017.4 |
| 20260508055438 | 68 | 252 | 1.0 | 2.0 | 0.00 | 0.00 | 0.00 | 17 | 1017.4 |
| 20260508054936 | 68 | 246 | 1.0 | 2.0 | 0.00 | 0.00 | 0.00 | 16 | 1017.4 |
| 20260508054435 | 68 | 246 | 0.0 | 2.0 | 0.00 | 0.00 | 0.00 | 16 | 1017.4 |
| 20260508052929 | 69 | 277 | 0.0 | 2.0 | 0.00 | 0.00 | 0.00 | 16 | 1017.4 |
| 20260508052425 | 69 | 277 | 0.0 | 2.0 | 0.00 | 0.00 | 0.00 | 16 | 1017.4 |
| 20260508051924 | 70 | 276 | 1.0 | 2.0 | 0.00 | 0.00 | 0.00 | 15 | 1017.4 |
| 20260508051419 | 71 | 256 | 1.0 | 2.0 | 0.00 | 0.00 | 0.00 | 15 | 1017.4 |
| 20260508050918 | 71 | 257 | 1.0 | 2.0 | 0.00 | 0.00 | 0.00 | 15 | 1017.3 |
| 20260508050419 | 71 | 233 | 0.0 | 2.0 | 0.00 | 0.00 | 0.00 | 15 | 1017.3 |
| 20260508045917 | 71 | 257 | 0.0 | 4.0 | 0.00 | 0.00 | 0.00 | 15 | 1017.3 |
| 20260508045418 | 71 | 300 | 0.0 | 4.0 | 0.00 | 0.00 | 0.00 | 15 | 1017.2 |
| 20260508044911 | 72 | 313 | 1.0 | 4.0 | 0.00 | 0.00 | 0.00 | 15 | 1017.2 |
| 20260508044409 | 72 | 311 | 1.0 | 4.0 | 0.00 | 0.00 | 0.00 | 15 | 1017.1 |
| 20260508043905 | 72 | 335 | 0.0 | 1.0 | 0.00 | 0.00 | 0.00 | 15 | 1017.1 |
| 20260508043405 | 73 | 335 | 0.0 | 3.0 | 0.00 | 0.00 | 0.00 | 14 | 1017.1 |
| 20260508042902 | 74 | 344 | 2.0 | 7.0 | 0.00 | 0.00 | 0.00 | 14 | 1016.9 |
| 20260508042401 | 74 | 348 | 3.0 | 7.0 | 0.00 | 0.00 | 0.00 | 14 | 1016.8 |
| 20260508041900 | 75 | 350 | 3.0 | 5.0 | 0.00 | 0.00 | 0.00 | 14 | 1016.7 |
| 20260508041401 | 75 | 219 | 3.0 | 6.0 | 0.00 | 0.00 | 0.00 | 13 | 1016.4 |
| 20260508040901 | 75 | 192 | 3.0 | 6.0 | 0.00 | 0.00 | 0.00 | 13 | 1016.3 |
| 20260508040401 | 75 | 200 | 3.0 | 6.0 | 0.00 | 0.00 | 0.00 | 13 | 1016.3 |
| 20260508035858 | 76 | 192 | 3.0 | 6.0 | 0.00 | 0.00 | 0.00 | 13 | 1016.2 |
| 20260508035357 | 76 | 261 | 3.0 | 7.0 | 0.00 | 0.00 | 0.00 | 13 | 1016.0 |
| 20260508034852 | 76 | 224 | 4.0 | 7.0 | 0.00 | 0.00 | 0.00 | 13 | 1015.9 |
| 20260508034351 | 76 | 204 | 3.0 | 7.0 | 0.00 | 0.00 | 0.00 | 13 | 1015.8 |
| 20260508033850 | 76 | 229 | 4.0 | 8.0 | 0.00 | 0.00 | 0.00 | 13 | 1015.8 |
| 20260508032848 | 76 | 256 | 3.0 | 7.0 | 0.00 | 0.00 | 0.00 | 13 | 1015.8 |
| 20260508032349 | 76 | 211 | 4.0 | 7.0 | 0.00 | 0.00 | 0.00 | 13 | 1015.6 |
| 20260508031848 | 76 | 214 | 4.0 | 8.0 | 0.00 | 0.00 | 0.00 | 12 | 1015.6 |
| 20260508031348 | 76 | 207 | 4.0 | 8.0 | 0.00 | 0.00 | 0.00 | 11 | 1015.5 |
| 20260508030848 | 75 | 207 | 3.0 | 6.0 | 0.00 | 0.00 | 0.00 | 9 | 1015.5 |
| 20260508025848 | 75 | 211 | 2.0 | 4.0 | 0.00 | 0.00 | 0.00 | 9 | 1015.2 |
| 20260508025347 | 74 | 217 | 2.0 | 4.0 | 0.00 | 0.00 | 0.00 | 10 | 1015.2 |
| 20260508024346 | 74 | 205 | 2.0 | 4.0 | 0.00 | 0.00 | 0.00 | 10 | 1015.1 |
| 20260508023846 | 75 | 202 | 2.0 | 4.0 | 0.00 | 0.00 | 0.00 | 10 | 1015.0 |
| 20260508022847 | 75 | 206 | 2.0 | 4.0 | 0.00 | 0.00 | 0.00 | 10 | 1014.9 |
| 20260508022349 | 76 | 201 | 2.0 | 4.0 | 0.00 | 0.00 | 0.00 | 10 | 1014.9 |
| 20260508021846 | 76 | 202 | 2.0 | 4.0 | 0.00 | 0.00 | 0.00 | 10 | 1014.9 |
| 20260508021347 | 75 | 234 | 1.0 | 3.0 | 0.00 | 0.00 | 0.00 | 10 | 1014.8 |
| 20260508020846 | 75 | 229 | 1.0 | 2.0 | 0.00 | 0.00 | 0.00 | 10 | 1014.8 |
| 20260508015846 | 75 | 254 | 1.0 | 3.0 | 0.00 | 0.00 | 0.00 | 11 | 1014.8 |
| 20260508015347 | 76 | 252 | 0.0 | 3.0 | 0.00 | 0.00 | 0.00 | 11 | 1014.8 |
| 20260508014846 | 77 | 240 | 0.0 | 1.0 | 0.00 | 0.00 | 0.00 | 12 | 1014.7 |
| 20260508014340 | 77 | 228 | 0.0 | 1.0 | 0.00 | 0.00 | 0.00 | 12 | 1014.7 |
| 20260508013838 | 78 | 195 | 0.0 | 0.0 | 0.00 | 0.00 | 0.00 | 12 | 1014.7 |
| 20260508013339 | 78 | 171 | 0.0 | 0.0 | 0.00 | 0.00 | 0.00 | 12 | 1014.7 |
| 20260508012336 | 79 | 171 | 0.0 | 3.0 | 0.00 | 0.00 | 0.00 | 11 | 1014.7 |
| 20260508011834 | 80 | 171 | 0.0 | 3.0 | 0.00 | 0.00 | 0.00 | 11 | 1014.7 |
| 20260508011333 | 80 | 113 | 0.0 | 0.0 | 0.00 | 0.00 | 0.00 | 11 | 1014.7 |
| 20260508010832 | 81 | 113 | 0.0 | 2.0 | 0.00 | 0.00 | 0.00 | 10 | 1014.7 |
| 20260508010331 | 81 | 111 | 1.0 | 3.0 | 0.00 | 0.00 | 0.00 | 10 | 1014.7 |
| 20260508005830 | 82 | 144 | 1.0 | 3.0 | 0.00 | 0.00 | 0.00 | 10 | 1014.6 |
| 20260508005330 | 83 | 147 | 1.0 | 3.0 | 0.00 | 0.00 | 0.00 | 10 | 1014.6 |
| 20260508004830 | 83 | 114 | 1.0 | 3.0 | 0.00 | 0.00 | 0.00 | 10 | 1014.6 |
| 20260508004329 | 83 | 130 | 1.0 | 3.0 | 0.00 | 0.00 | 0.00 | 10 | 1014.4 |
| 20260508003326 | 84 | 246 | 0.0 | 2.0 | 0.00 | 0.00 | 0.00 | 10 | 1014.4 |
| 20260508002828 | 84 | 246 | 1.0 | 4.0 | 0.00 | 0.00 | 0.00 | 10 | 1014.6 |
| 20260508002324 | 84 | 178 | 2.0 | 5.0 | 0.00 | 0.00 | 0.00 | 10 | 1014.6 |
| 20260508001824 | 84 | 183 | 2.0 | 5.0 | 0.00 | 0.00 | 0.00 | 10 | 1014.4 |
| 20260508001324 | 85 | 151 | 2.0 | 5.0 | 0.00 | 0.00 | 0.00 | 9 | 1014.6 |
| 20260508000824 | 85 | 326 | 2.0 | 5.0 | 0.00 | 0.00 | 0.00 | 10 | 1014.6 |
| 20260508000322 | 86 | 336 | 1.0 | 4.0 | 0.00 | 0.00 | 0.00 | 9 | 1014.6 |
| 20260507235820 | 87 | 110 | 1.0 | 4.0 | 0.00 | 0.00 | 0.00 | 9 | 1014.7 |
| 20260507235318 | 87 | 348 | 1.0 | 3.0 | 0.00 | 0.00 | 0.00 | 9 | 1014.7 |
| 20260507234816 | 87 | 119 | 1.0 | 3.0 | 0.00 | 0.00 | 0.00 | 9 | 1014.7 |
| 20260507234315 | 87 | 106 | 0.0 | 3.0 | 0.00 | 0.00 | 0.00 | 9 | 1014.7 |
| 20260507233810 | 87 | 134 | 0.0 | 2.0 | 0.00 | 0.00 | 0.00 | 9 | 1014.7 |
| 20260507233308 | 87 | 137 | 1.0 | 3.0 | 0.00 | 0.00 | 0.00 | 9 | 1014.8 |
| 20260507232806 | 86 | 137 | 1.0 | 3.0 | 0.00 | 0.00 | 0.00 | 10 | 1014.8 |
| 20260507231802 | 85 | 298 | 1.0 | 4.0 | 0.00 | 0.00 | 0.00 | 10 | 1014.7 |
| 20260507231305 | 87 | 36 | 1.0 | 4.0 | 0.00 | 0.00 | 0.00 | 9 | 1014.8 |
| 20260507230802 | 87 | 339 | 0.0 | 3.0 | 0.00 | 0.00 | 0.00 | 9 | 1014.9 |
| 20260507230303 | 88 | 42 | 1.0 | 2.0 | 0.00 | 0.00 | 0.00 | 9 | 1014.9 |
| 20260507225800 | 88 | 192 | 1.0 | 2.0 | 0.00 | 0.00 | 0.00 | 8 | 1014.9 |
| 20260507224759 | 89 | 182 | 1.0 | 2.0 | 0.00 | 0.00 | 0.00 | 8 | 1015.1 |
| 20260507224258 | 88 | 331 | 1.0 | 2.0 | 0.00 | 0.00 | 0.00 | 9 | 1015.1 |
| 20260507223754 | 88 | 132 | 1.0 | 3.0 | 0.00 | 0.00 | 0.00 | 9 | 1015.2 |
| 20260507223254 | 87 | 129 | 2.0 | 5.0 | 0.00 | 0.00 | 0.00 | 9 | 1015.4 |
| 20260507222751 | 87 | 105 | 1.0 | 5.0 | 0.00 | 0.00 | 0.00 | 9 | 1015.4 |
| 20260507222251 | 86 | 69 | 1.0 | 3.0 | 0.00 | 0.00 | 0.00 | 9 | 1015.4 |
| 20260507221750 | 86 | 355 | 1.0 | 3.0 | 0.00 | 0.00 | 0.00 | 10 | 1015.5 |
| 20260507221250 | 86 | 23 | 2.0 | 6.0 | 0.00 | 0.00 | 0.00 | 9 | 1015.6 |
| 20260507220750 | 85 | 140 | 2.0 | 7.0 | 0.00 | 0.00 | 0.00 | 10 | 1015.6 |
| 20260507220250 | 84 | 5 | 1.0 | 7.0 | 0.00 | 0.00 | 0.00 | 10 | 1015.7 |
| 20260507215749 | 85 | 346 | 1.0 | 5.0 | 0.00 | 0.00 | 0.00 | 9 | 1015.8 |
| 20260507215250 | 85 | 96 | 1.0 | 5.0 | 0.00 | 0.00 | 0.00 | 10 | 1015.8 |
| 20260507214750 | 85 | 39 | 1.0 | 3.0 | 0.00 | 0.00 | 0.00 | 9 | 1015.9 |
| 20260507214250 | 85 | 350 | 1.0 | 3.0 | 0.00 | 0.00 | 0.00 | 9 | 1016.0 |
| 20260507213748 | 86 | 30 | 1.0 | 5.0 | 0.00 | 0.00 | 0.00 | 8 | 1016.2 |
| 20260507213249 | 85 | 84 | 1.0 | 5.0 | 0.00 | 0.00 | 0.00 | 8 | 1016.3 |
| 20260507212749 | 85 | 355 | 1.0 | 5.0 | 0.00 | 0.00 | 0.00 | 8 | 1016.5 |
| 20260507212248 | 85 | 17 | 1.0 | 4.0 | 0.00 | 0.00 | 0.00 | 8 | 1016.5 |
| 20260507211748 | 85 | 69 | 1.0 | 4.0 | 0.00 | 0.00 | 0.00 | 8 | 1016.6 |
| 20260507211248 | 85 | 49 | 1.0 | 5.0 | 0.00 | 0.00 | 0.00 | 8 | 1016.7 |
| 20260507210749 | 85 | 319 | 1.0 | 5.0 | 0.00 | 0.00 | 0.00 | 8 | 1016.7 |
| 20260507205244 | 85 | 71 | 1.0 | 3.0 | 0.00 | 0.00 | 0.00 | 8 | 1016.9 |
| 20260507204745 | 86 | 355 | 1.0 | 3.0 | 0.00 | 0.00 | 0.00 | 8 | 1017.1 |
| 20260507204244 | 86 | 110 | 1.0 | 3.0 | 0.00 | 0.00 | 0.00 | 8 | 1017.2 |
| 20260507203744 | 85 | 22 | 1.0 | 3.0 | 0.00 | 0.00 | 0.00 | 8 | 1017.3 |
| 20260507203245 | 84 | 89 | 1.0 | 3.0 | 0.00 | 0.00 | 0.00 | 8 | 1017.3 |
| 20260507202744 | 83 | 146 | 0.0 | 2.0 | 0.00 | 0.00 | 0.00 | 9 | 1017.4 |
| 20260507202245 | 84 | 164 | 0.0 | 2.0 | 0.00 | 0.00 | 0.00 | 8 | 1017.5 |
| 20260507201743 | 85 | 150 | 0.0 | 3.0 | 0.00 | 0.00 | 0.00 | 8 | 1017.5 |
| 20260507201240 | 85 | 161 | 1.0 | 5.0 | 0.00 | 0.00 | 0.00 | 9 | 1017.7 |
| 20260507200740 | 85 | 98 | 1.0 | 5.0 | 0.00 | 0.00 | 0.00 | 10 | 1017.7 |
| 20260507200240 | 84 | 43 | 1.0 | 4.0 | 0.00 | 0.00 | 0.00 | 9 | 1017.7 |
| 20260507195740 | 83 | 71 | 1.0 | 4.0 | 0.00 | 0.00 | 0.00 | 10 | 1017.9 |
| 20260507195240 | 83 | 62 | 1.0 | 4.0 | 0.00 | 0.00 | 0.00 | 10 | 1017.9 |
| 20260507194740 | 83 | 65 | 1.0 | 3.0 | 0.00 | 0.00 | 0.00 | 10 | 1018.0 |
| 20260507194240 | 83 | 110 | 1.0 | 4.0 | 0.00 | 0.00 | 0.00 | 12 | 1018.1 |
| 20260507193739 | 83 | 66 | 1.0 | 4.0 | 0.00 | 0.00 | 0.00 | 11 | 1018.2 |
| 20260507193237 | 82 | 219 | 0.0 | 3.0 | 0.00 | 0.00 | 0.00 | 12 | 1018.2 |
| 20260507192738 | 82 | 289 | 1.0 | 3.0 | 0.00 | 0.00 | 0.00 | 10 | 1018.3 |
| 20260507192236 | 82 | 281 | 1.0 | 3.0 | 0.00 | 0.00 | 0.00 | 10 | 1018.4 |
| 20260507191736 | 82 | 111 | 1.0 | 3.0 | 0.00 | 0.00 | 0.00 | 11 | 1018.5 |
| 20260507191232 | 81 | 107 | 1.0 | 6.0 | 0.00 | 0.00 | 0.00 | 13 | 1018.6 |
| 20260507190732 | 80 | 59 | 1.0 | 6.0 | 0.00 | 0.00 | 0.00 | 12 | 1018.9 |
| 20260507190232 | 79 | 66 | 1.0 | 3.0 | 0.00 | 0.00 | 0.00 | 13 | 1018.9 |
| 20260507185730 | 80 | 82 | 0.0 | 2.0 | 0.00 | 0.00 | 0.00 | 11 | 1018.9 |
| 20260507185228 | 80 | 119 | 1.0 | 3.0 | 0.00 | 0.00 | 0.00 | 13 | 1019.0 |
| 20260507184730 | 81 | 17 | 2.0 | 3.0 | 0.00 | 0.00 | 0.00 | 11 | 1019.1 |
| 20260507184226 | 80 | 81 | 2.0 | 5.0 | 0.00 | 0.00 | 0.00 | 12 | 1019.0 |
| 20260507183226 | 79 | 34 | 1.0 | 3.0 | 0.00 | 0.00 | 0.00 | 12 | 1019.2 |
| 20260507182726 | 79 | 45 | 1.0 | 3.0 | 0.00 | 0.00 | 0.00 | 13 | 1019.3 |
| 20260507182226 | 80 | 349 | 1.0 | 8.0 | 0.00 | 0.00 | 0.00 | 12 | 1019.3 |
| 20260507181726 | 80 | 30 | 1.0 | 8.0 | 0.00 | 0.00 | 0.00 | 12 | 1019.4 |
| 20260507181226 | 80 | 345 | 1.0 | 4.0 | 0.00 | 0.00 | 0.00 | 12 | 1019.4 |
| 20260507180726 | 80 | 10 | 1.0 | 4.0 | 0.00 | 0.00 | 0.00 | 13 | 1019.6 |
| 20260507180222 | 79 | 5 | 1.0 | 4.0 | 0.00 | 0.00 | 0.00 | 14 | 1019.6 |
| 20260507175718 | 79 | 20 | 1.0 | 5.0 | 0.00 | 0.00 | 0.00 | 14 | 1019.6 |
| 20260507175219 | 78 | 103 | 1.0 | 5.0 | 0.00 | 0.00 | 0.00 | 15 | 1019.7 |
| 20260507174718 | 78 | 327 | 1.0 | 3.0 | 0.00 | 0.00 | 0.00 | 14 | 1019.7 |
| 20260507173216 | 76 | 341 | 1.0 | 6.0 | 0.00 | 0.00 | 0.00 | 15 | 1019.9 |
| 20260507172212 | 76 | 344 | 1.0 | 5.0 | 0.00 | 0.00 | 0.00 | 15 | 1020.0 |
| 20260507171712 | 75 | 349 | 1.0 | 5.0 | 0.00 | 0.00 | 0.00 | 15 | 1020.1 |
| 20260507171210 | 74 | 336 | 0.0 | 2.0 | 0.00 | 0.00 | 0.00 | 17 | 1020.0 |
| 20260507170710 | 74 | 355 | 0.0 | 1.0 | 0.00 | 0.00 | 0.00 | 15 | 1020.1 |
| 20260507165210 | 74 | 355 | 2.0 | 5.0 | 0.00 | 0.00 | 0.00 | 16 | 1020.4 |
| 20260507164706 | 73 | 336 | 2.0 | 5.0 | 0.00 | 0.00 | 0.00 | 16 | 1020.4 |
| 20260507163704 | 73 | 329 | 1.0 | 4.0 | 0.00 | 0.00 | 0.00 | 17 | 1020.4 |
| 20260507163204 | 73 | 325 | 1.0 | 4.0 | 0.00 | 0.00 | 0.00 | 15 | 1020.5 |
| 20260507162703 | 72 | 338 | 0.0 | 4.0 | 0.00 | 0.00 | 0.00 | 16 | 1020.5 |
| 20260507161704 | 71 | 306 | 1.0 | 4.0 | 0.00 | 0.00 | 0.00 | 16 | 1020.6 |
| 20260507161204 | 71 | 351 | 1.0 | 4.0 | 0.00 | 0.00 | 0.00 | 16 | 1020.6 |
| 20260507160704 | 71 | 42 | 1.0 | 5.0 | 0.00 | 0.00 | 0.00 | 15 | 1020.7 |
| 20260507160202 | 71 | 23 | 1.0 | 5.0 | 0.00 | 0.00 | 0.00 | 18 | 1020.7 |
| 20260507155704 | 71 | 345 | 2.0 | 6.0 | 0.00 | 0.00 | 0.00 | 16 | 1020.7 |
| 20260507155202 | 71 | 313 | 2.0 | 6.0 | 0.00 | 0.00 | 0.00 | 18 | 1020.8 |
| 20260507154702 | 71 | 331 | 2.0 | 5.0 | 0.00 | 0.00 | 0.00 | 17 | 1020.8 |
| 20260507154202 | 70 | 319 | 1.0 | 5.0 | 0.00 | 0.00 | 0.00 | 18 | 1020.8 |
| 20260507153702 | 70 | 312 | 1.0 | 5.0 | 0.00 | 0.00 | 0.00 | 19 | 1020.9 |
| 20260507153202 | 69 | 339 | 2.0 | 5.0 | 0.00 | 0.00 | 0.00 | 18 | 1020.9 |
| 20260507152702 | 69 | 332 | 1.0 | 5.0 | 0.00 | 0.00 | 0.00 | 19 | 1020.9 |
| 20260507152202 | 69 | 313 | 1.0 | 5.0 | 0.00 | 0.00 | 0.00 | 20 | 1020.8 |
| 20260507151702 | 68 | 351 | 1.0 | 5.0 | 0.00 | 0.00 | 0.00 | 20 | 1020.9 |
| 20260507151202 | 68 | 355 | 1.0 | 5.0 | 0.00 | 0.00 | 0.00 | 20 | 1021.0 |
| 20260507150700 | 67 | 328 | 1.0 | 3.0 | 0.00 | 0.00 | 0.00 | 21 | 1021.1 |
| 20260507150159 | 67 | 319 | 0.0 | 2.0 | 0.00 | 0.00 | 0.00 | 21 | 1021.1 |
| 20260507145658 | 67 | 350 | 0.0 | 4.0 | 0.00 | 0.00 | 0.00 | 21 | 1021.3 |
| 20260507145201 | 67 | 336 | 0.0 | 4.0 | 0.00 | 0.00 | 0.00 | 21 | 1021.3 |
| 20260507144658 | 67 | 326 | 0.0 | 3.0 | 0.00 | 0.00 | 0.00 | 22 | 1021.3 |
| 20260507144158 | 66 | 341 | 0.0 | 3.0 | 0.00 | 0.00 | 0.00 | 21 | 1021.3 |
| 20260507143657 | 66 | 355 | 1.0 | 4.0 | 0.00 | 0.00 | 0.00 | 22 | 1021.4 |
| 20260507143154 | 66 | 351 | 1.0 | 4.0 | 0.00 | 0.00 | 0.00 | 22 | 1021.4 |
| 20260507142654 | 65 | 342 | 1.0 | 3.0 | 0.00 | 0.00 | 0.00 | 23 | 1021.4 |